FW6176 Weather Reports


Display with metric or nautical units.
time (UTC)temp
F
wind
direction
speed
MPH
gust
MPH
rain 1hr
in
rain 24hr
in
rain mn
in
humidity
%
barometer
mb
20260508013050 60 252 0.0 0.0 0.00 0.00 0.00 47 1013.4
20260508011539 61 252 0.0 0.0 0.00 0.00 0.00 44 1013.3
20260508010036 63 252 0.0 0.0 0.00 0.00 0.00 41 1013.1
20260508004534 64 252 0.0 0.0 0.00 0.00 0.00 40 1013.0
20260508003034 65 252 0.0 1.0 0.00 0.00 0.00 39 1012.9
20260508001558 66 224 0.0 4.0 0.00 0.00 0.00 37 1012.9
20260508000032 67 137 0.0 2.0 0.00 0.00 0.00 37 1012.8
20260507234535 67 324 0.0 2.0 0.00 0.00 0.00 37 1012.8
20260507233031 67 257 0.0 5.0 0.00 0.00 0.00 36 1012.9
20260507231535 68 220 1.0 4.0 0.00 0.00 0.00 36 1013.0
20260507230029 68 112 0.0 4.0 0.00 0.00 0.00 35 1012.9
20260507224540 68 219 1.0 5.0 0.00 0.00 0.00 35 1013.2
20260507223027 68 27 0.0 3.0 0.00 0.00 0.00 34 1013.3
20260507221525 69 293 0.0 6.0 0.00 0.00 0.00 35 1013.5
20260507220037 69 246 0.0 4.0 0.00 0.00 0.00 35 1013.4
20260507214533 69 278 1.0 8.0 0.00 0.00 0.00 34 1013.5
20260507213022 69 176 0.0 4.0 0.00 0.00 0.00 34 1013.6
20260507211521 69 117 1.0 7.0 0.00 0.00 0.00 34 1013.7
20260507210019 69 243 0.0 5.0 0.00 0.00 0.00 34 1014.0
20260507204518 70 245 1.0 6.0 0.00 0.00 0.00 35 1014.2
20260507203015 69 250 0.0 6.0 0.00 0.00 0.00 33 1014.5
20260507201514 69 292 0.0 4.0 0.00 0.00 0.00 33 1014.9
20260507200016 69 214 1.0 8.0 0.00 0.00 0.00 33 1014.9
20260507194512 69 296 1.0 9.0 0.00 0.00 0.00 31 1015.0
20260507193010 69 281 1.0 4.0 0.00 0.00 0.00 33 1015.1
20260507191507 69 189 1.0 4.0 0.00 0.00 0.00 34 1015.4
20260507190007 69 295 0.0 8.0 0.00 0.00 0.00 33 1015.5
20260507184506 69 112 1.0 10.0 0.00 0.00 0.00 37 1015.6
20260507183004 68 299 4.0 8.0 0.00 0.00 0.00 32 1015.6
20260507181606 67 212 0.0 10.0 0.00 0.00 0.00 35 1015.9
20260507180058 68 346 0.0 3.0 0.00 0.00 0.00 40 1016.1
20260507174609 67 300 3.0 6.0 0.00 0.00 0.00 35 1016.3
20260507173056 67 327 0.0 8.0 0.00 0.00 0.00 35 1016.4
20260507171602 68 276 0.0 4.0 0.00 0.00 0.00 38 1016.5
20260507170052 66 239 0.0 6.0 0.00 0.00 0.00 39 1017.0
20260507164548 66 261 0.0 4.0 0.00 0.00 0.00 37 1017.3
20260507163046 66 42 0.0 4.0 0.00 0.00 0.00 36 1017.3
20260507161545 65 41 0.0 3.0 0.00 0.00 0.00 40 1017.6
20260507160044 65 91 0.0 4.0 0.00 0.00 0.00 36 1017.6
20260507154547 64 243 0.0 4.0 0.00 0.00 0.00 35 1017.9
20260507153048 64 167 1.0 4.0 0.00 0.00 0.00 38 1017.7
20260507151538 63 201 0.0 4.0 0.00 0.00 0.00 40 1017.9
20260507150040 63 115 0.0 3.0 0.00 0.00 0.00 40 1018.1
20260507144535 63 339 0.0 5.0 0.00 0.00 0.00 41 1018.3
20260507143034 62 125 0.0 3.0 0.00 0.00 0.00 43 1018.3
20260507141531 61 176 0.0 4.0 0.00 0.00 0.00 45 1018.4
20260507140029 61 264 0.0 2.0 0.00 0.00 0.00 47 1018.4
20260507134525 60 245 0.0 2.0 0.00 0.00 0.00 48 1018.3
20260507133022 59 136 0.0 4.0 0.00 0.00 0.00 47 1018.2
20260507131526 58 258 0.0 1.0 0.00 0.00 0.00 50 1018.3
20260507130018 56 352 0.0 2.0 0.00 0.00 0.00 53 1018.3
20260507124512 55 89 0.0 1.0 0.00 0.00 0.00 57 1018.2
20260507123007 53 154 0.0 0.0 0.00 0.00 0.00 61 1018.1
20260507121507 51 98 0.0 1.0 0.00 0.00 0.00 69 1018.1
20260507114613 44 337 0.0 0.0 0.00 0.00 0.00 82 1017.8
20260507113055 42 338 0.0 0.0 0.00 0.00 0.00 81 1017.6
20260507111603 42 338 0.0 0.0 0.00 0.00 0.00 80 1017.6
20260507110057 42 337 0.0 0.0 0.00 0.00 0.00 80 1017.5
20260507104552 42 337 0.0 0.0 0.00 0.01 0.00 79 1017.4
20260507103049 43 338 0.0 0.0 0.00 0.01 0.00 78 1017.3
20260507101547 44 337 0.0 0.0 0.00 0.01 0.00 78 1017.4
20260507100048 44 338 0.0 0.0 0.00 0.01 0.00 79 1017.4
20260507094548 44 338 0.0 0.0 0.00 0.02 0.00 79 1017.4
20260507093053 44 336 0.0 0.0 0.00 0.02 0.00 79 1017.3
20260507091550 44 336 0.0 0.0 0.00 0.02 0.00 79 1017.5
20260507090044 43 336 0.0 0.0 0.00 0.02 0.00 78 1017.6
20260507084543 43 336 0.0 0.0 0.00 0.03 0.00 78 1017.7
20260507083041 43 336 0.0 1.0 0.00 0.03 0.00 77 1017.8
20260507081547 44 327 0.0 0.0 0.00 0.03 0.00 76 1017.9
20260507080039 44 323 0.0 0.0 0.00 0.03 0.00 75 1018.0
20260507074554 44 323 0.0 0.0 0.00 0.04 0.00 74 1017.8
20260507073036 44 323 0.0 0.0 0.00 0.04 0.00 74 1017.6
20260507071534 44 323 0.0 0.0 0.00 0.04 0.00 73 1017.5
20260507070032 45 323 0.0 0.0 0.00 0.04 0.00 73 1017.6
20260507064531 45 323 0.0 0.0 0.00 0.06 0.00 74 1017.9
20260507063030 46 323 0.0 0.0 0.00 0.06 0.00 72 1017.8
20260507061530 46 323 0.0 0.0 0.00 0.06 0.00 72 1017.9
20260507060027 46 323 0.0 0.0 0.00 0.06 0.00 72 1018.1
20260507054524 46 323 0.0 0.0 0.00 0.08 0.00 71 1017.8
20260507053023 47 323 0.0 0.0 0.00 0.08 0.00 70 1017.8
20260507051522 47 323 0.0 0.0 0.00 0.08 0.00 69 1017.8
20260507050026 47 323 0.0 0.0 0.00 0.08 0.00 68 1017.8
20260507044517 47 323 0.0 0.0 0.00 0.11 0.08 67 1017.6
20260507043017 48 323 0.0 0.0 0.00 0.11 0.08 66 1017.7
20260507041517 49 323 0.0 0.0 0.00 0.11 0.08 64 1017.6
20260507040017 49 323 0.0 0.0 0.00 0.11 0.08 64 1017.6
20260507034516 50 323 0.0 0.0 0.00 0.11 0.08 61 1017.8
20260507033020 51 323 0.0 0.0 0.00 0.11 0.08 61 1017.8
20260507031514 53 323 0.0 0.0 0.00 0.11 0.08 57 1017.8
20260507030014 54 323 0.0 0.0 0.00 0.11 0.08 53 1017.7
20260507024514 55 323 0.0 2.0 0.00 0.13 0.08 50 1017.7
20260507023013 56 310 0.0 2.0 0.00 0.13 0.08 49 1017.7
20260507021511 56 310 0.0 3.0 0.00 0.13 0.08 48 1017.4
20260507020009 57 309 2.0 5.0 0.00 0.13 0.08 47 1017.3
20260507014509 57 293 1.0 3.0 0.00 0.19 0.08 47 1016.9